CW4621 Weather Reports


Display with metric or nautical units.
time (UTC)temp
F
wind
direction
speed
MPH
gust
MPH
rain 1hr
in
rain 24hr
in
rain mn
in
humidity
%
barometer
mb
20260902143605 73 11 0.0 1.0 0.00 0.11 0.01 92 1018.8
20260902143105 73 49 1.0 3.0 0.00 0.11 0.01 92 1018.9
20260902142605 72 86 0.0 1.0 0.00 0.11 0.01 93 1018.9
20260902142104 72 110 1.0 2.0 0.00 0.11 0.01 93 1018.9
20260902141604 72 83 1.0 3.0 0.00 0.11 0.01 93 1018.7
20260902141104 72 1 0.0 1.0 0.00 0.11 0.01 93 1018.8
20260902140605 72 31 0.0 2.0 0.00 0.11 0.01 93 1018.8
20260902135604 72 33 0.0 2.0 0.00 0.11 0.01 93 1019.1
20260902135105 72 16 1.0 2.0 0.00 0.11 0.01 93 1019.0
20260902134605 72 242 2.0 3.0 0.00 0.11 0.01 93 1018.7
20260902134104 72 35 0.0 2.0 0.00 0.11 0.01 94 1018.7
20260902133105 72 14 0.0 1.0 0.00 0.11 0.01 95 1018.4
20260902132604 72 85 0.0 3.0 0.00 0.11 0.01 95 1018.4
20260902132104 72 89 1.0 3.0 0.00 0.11 0.01 95 1018.4
20260902131604 71 99 0.0 1.0 0.00 0.11 0.01 95 1018.4
20260902131104 71 80 0.0 3.0 0.00 0.11 0.01 95 1018.4
20260902130605 71 90 0.0 3.0 0.00 0.11 0.01 95 1018.4
20260902130105 71 354 0.0 1.0 0.00 0.11 0.01 95 1018.4
20260902125605 71 65 0.0 3.0 0.00 0.11 0.01 95 1018.2
20260902124604 71 18 1.0 5.0 0.00 0.11 0.01 95 1018.2
20260902124105 71 42 1.0 2.0 0.00 0.11 0.01 95 1018.2
20260902123105 71 43 1.0 3.0 0.00 0.11 0.01 95 1018.1
20260902122604 71 345 1.0 5.0 0.00 0.11 0.01 95 1018.0
20260902122105 71 66 1.0 2.0 0.00 0.11 0.01 96 1017.8
20260902121604 71 3 1.0 3.0 0.00 0.11 0.01 96 1017.9
20260902121105 71 45 0.0 3.0 0.00 0.11 0.01 96 1018.0
20260902120605 70 35 0.0 3.0 0.00 0.11 0.01 96 1018.0
20260902120105 70 27 0.0 2.0 0.00 0.11 0.01 96 1018.0
20260902115605 70 93 1.0 3.0 0.00 0.11 0.01 96 1018.0
20260902115105 70 55 1.0 3.0 0.00 0.11 0.01 96 1018.1
20260902114605 70 37 2.0 3.0 0.00 0.11 0.01 96 1018.2
20260902113605 70 52 1.0 5.0 0.00 0.11 0.01 96 1018.0
20260902113104 70 80 1.0 5.0 0.00 0.11 0.01 96 1017.9
20260902112604 70 14 1.0 3.0 0.00 0.11 0.01 96 1017.8
20260902112105 70 86 0.0 2.0 0.00 0.11 0.01 96 1017.9
20260902111605 70 75 0.0 2.0 0.00 0.11 0.01 96 1017.9
20260902111105 70 14 1.0 5.0 0.00 0.11 0.01 96 1017.8
20260902110604 70 26 1.0 3.0 0.00 0.11 0.01 96 1017.8
20260902110104 70 3 0.0 2.0 0.00 0.11 0.01 96 1017.8
20260902105604 70 41 0.0 3.0 0.00 0.11 0.01 96 1017.7
20260902105104 70 37 0.0 2.0 0.00 0.11 0.01 96 1017.8
20260902104604 70 35 0.0 1.0 0.00 0.11 0.01 96 1017.7
20260902104104 70 61 0.0 3.0 0.00 0.11 0.01 96 1017.6
20260902103604 70 45 0.0 2.0 0.00 0.11 0.01 96 1017.6
20260902103105 70 76 0.0 1.0 0.00 0.11 0.01 96 1017.5
20260902102605 70 22 0.0 1.0 0.00 0.11 0.01 96 1017.5
20260902102105 70 345 0.0 1.0 0.00 0.11 0.01 96 1017.6
20260902101605 70 345 0.0 1.0 0.00 0.11 0.01 96 1017.6
20260902101104 70 13 0.0 1.0 0.00 0.11 0.01 96 1017.6
20260902100605 70 17 0.0 1.0 0.00 0.11 0.01 96 1017.6
20260902100104 70 349 0.0 1.0 0.01 0.11 0.01 96 1017.6
20260902095604 70 349 0.0 1.0 0.01 0.11 0.01 96 1017.7
20260902095105 70 348 1.0 2.0 0.01 0.11 0.01 96 1017.5
20260902094605 70 35 0.0 1.0 0.01 0.11 0.01 96 1017.5
20260902094104 70 37 0.0 1.0 0.01 0.11 0.01 96 1017.4
20260902093604 70 39 0.0 1.0 0.01 0.11 0.01 95 1017.4
20260902093105 70 39 0.0 1.0 0.01 0.11 0.01 95 1017.3
20260902092604 70 356 0.0 2.0 0.01 0.11 0.01 95 1017.3
20260902092104 70 113 0.0 1.0 0.01 0.11 0.01 95 1017.2
20260902091604 70 347 0.0 1.0 0.01 0.11 0.01 95 1017.2
20260902091104 70 0 0.0 2.0 0.01 0.11 0.01 95 1017.1
20260902090604 70 79 0.0 1.0 0.01 0.11 0.01 95 1017.1
20260902090104 70 100 0.0 1.0 0.00 0.10 0.00 95 1017.0
20260902085605 70 100 0.0 2.0 0.00 0.10 0.00 95 1017.0
20260902085104 70 74 0.0 2.0 0.00 0.10 0.00 95 1017.0
20260902084605 70 59 0.0 2.0 0.00 0.10 0.00 95 1017.0
20260902084104 70 70 0.0 1.0 0.00 0.10 0.00 95 1017.0
20260902083104 71 99 0.0 2.0 0.00 0.10 0.00 95 1016.8
20260902082605 71 18 0.0 2.0 0.00 0.10 0.00 95 1016.8
20260902082104 71 41 1.0 3.0 0.00 0.10 0.00 95 1016.8
20260902081604 71 44 0.0 1.0 0.00 0.10 0.00 95 1016.7
20260902081104 71 40 0.0 2.0 0.00 0.10 0.00 95 1016.8
20260902080604 71 31 0.0 2.0 0.00 0.10 0.00 95 1016.8
20260902075604 71 54 0.0 2.0 0.00 0.10 0.00 95 1016.8
20260902075104 71 31 1.0 3.0 0.00 0.10 0.00 95 1016.7
20260902074604 71 31 0.0 1.0 0.00 0.10 0.00 95 1016.6
20260902074104 71 343 0.0 1.0 0.00 0.10 0.00 95 1016.6
20260902073605 71 347 0.0 0.0 0.00 0.10 0.00 95 1016.5
20260902073104 71 36 0.0 1.0 0.00 0.10 0.00 95 1016.5
20260902072604 71 29 0.0 2.0 0.00 0.10 0.00 95 1016.5
20260902072105 72 16 2.0 5.0 0.00 0.10 0.00 95 1016.5
20260902071604 72 32 0.0 2.0 0.00 0.10 0.00 95 1016.4
20260902071105 72 75 1.0 5.0 0.00 0.10 0.00 95 1016.3
20260902070604 72 32 1.0 5.0 0.00 0.10 0.00 95 1016.2
20260902070104 72 40 1.0 6.0 0.00 0.10 0.00 95 1016.2
20260902064604 72 29 1.0 3.0 0.00 0.10 0.00 95 1016.1
20260902064104 72 46 1.0 3.0 0.00 0.10 0.00 95 1016.1
20260902063605 72 25 1.0 3.0 0.00 0.10 0.00 95 1016.2
20260902063104 72 175 0.0 2.0 0.00 0.10 0.00 95 1016.3
20260902062604 72 13 0.0 3.0 0.00 0.10 0.00 95 1016.2
20260902062104 72 82 0.0 3.0 0.00 0.10 0.00 95 1016.3
20260902060605 72 84 0.0 2.0 0.00 0.10 0.00 95 1016.0
20260902060105 73 9 0.0 2.0 0.00 0.10 0.00 95 1016.0
20260902055604 73 12 0.0 1.0 0.00 0.10 0.00 95 1015.9
20260902055104 73 15 1.0 3.0 0.00 0.10 0.00 95 1015.9
20260902054604 73 352 0.0 0.0 0.00 0.10 0.00 95 1015.9
20260902054105 73 347 0.0 1.0 0.00 0.10 0.00 95 1015.9
20260902053604 73 347 0.0 1.0 0.00 0.10 0.00 95 1016.0
20260902053104 73 347 0.0 0.0 0.00 0.10 0.00 94 1016.0
20260902052604 73 347 0.0 0.0 0.00 0.10 0.00 94 1016.1
20260902051605 73 347 0.0 0.0 0.00 0.10 0.00 94 1016.2
20260902050604 73 347 0.0 1.0 0.00 0.10 0.00 94 1016.2
20260902050104 73 358 0.0 1.0 0.00 0.10 0.00 94 1016.2
20260902045604 73 51 0.0 1.0 0.00 0.10 0.00 94 1016.2
20260902045104 73 51 0.0 1.0 0.00 0.10 0.00 94 1016.2
20260902044604 73 51 0.0 1.0 0.00 0.10 0.00 94 1016.3
20260902044105 74 52 0.0 0.0 0.00 0.10 0.00 94 1016.3
20260902043604 74 51 0.0 1.0 0.00 0.10 0.00 94 1016.3
20260902043105 74 60 0.0 1.0 0.00 0.10 0.00 94 1016.3
20260902042104 73 207 0.0 1.0 0.00 0.10 0.00 94 1016.0
20260902041604 73 217 0.0 1.0 0.00 0.10 0.00 94 1015.9
20260902041104 73 217 0.0 1.0 0.00 0.10 0.00 94 1015.8
20260902040604 73 217 0.0 1.0 0.00 0.10 0.00 93 1015.7
20260902040105 73 191 0.0 0.0 0.00 0.10 0.00 92 1015.6
20260902035604 73 191 0.0 0.0 0.00 0.10 0.10 92 1015.7
20260902035104 73 191 0.0 0.0 0.00 0.10 0.10 92 1015.7
20260902034604 73 191 0.0 0.0 0.00 0.10 0.10 92 1015.7
20260902034105 73 191 0.0 0.0 0.00 0.10 0.10 91 1015.6
20260902033104 73 191 0.0 0.0 0.00 0.10 0.10 89 1015.5
20260902032604 73 191 0.0 0.0 0.00 0.10 0.10 89 1015.3
20260902032105 74 191 0.0 2.0 0.00 0.10 0.10 89 1015.3
20260902031604 74 181 1.0 2.0 0.00 0.10 0.10 89 1015.1
20260902031104 74 113 0.0 2.0 0.00 0.10 0.10 88 1015.0
20260902030604 74 214 1.0 2.0 0.00 0.10 0.10 88 1015.0
20260902030105 74 167 1.0 1.0 0.00 0.10 0.10 87 1014.9
20260902024104 74 127 0.0 0.0 0.00 0.10 0.10 86 1014.9
20260902023604 75 127 0.0 3.0 0.00 0.10 0.10 86 1015.0
20260902023104 75 195 1.0 3.0 0.00 0.10 0.10 86 1015.0
20260902022604 75 133 0.0 3.0 0.00 0.10 0.10 86 1014.9
20260902022104 75 89 0.0 1.0 0.00 0.10 0.10 85 1015.0
20260902021604 75 84 0.0 2.0 0.02 0.10 0.10 85 1014.9
20260902021104 75 56 0.0 1.0 0.03 0.10 0.10 85 1014.8
20260902020604 75 20 0.0 3.0 0.03 0.10 0.10 85 1015.1
20260902020104 75 48 0.0 1.0 0.03 0.10 0.10 84 1015.5
20260902015604 75 37 0.0 1.0 0.03 0.10 0.10 84 1015.4
20260902014604 75 12 0.0 2.0 0.07 0.10 0.10 83 1015.6
20260902013605 76 27 0.0 2.0 0.10 0.10 0.10 82 1015.3
20260902013104 76 136 0.0 1.0 0.10 0.10 0.10 80 1014.6
20260902012605 76 141 0.0 3.0 0.10 0.10 0.10 80 1013.7
20260902012106 77 309 1.0 5.0 0.10 0.10 0.10 79 1013.5
20260902011605 77 251 1.0 5.0 0.08 0.08 0.08 78 1013.5
20260902011105 78 254 3.0 8.0 0.07 0.07 0.07 78 1013.7
20260902010105 79 145 0.0 1.0 0.07 0.07 0.07 79 1013.4
20260902005605 80 224 1.0 3.0 0.07 0.07 0.07 79 1012.3
20260902005105 81 333 0.0 3.0 0.05 0.05 0.05 78 1012.5
20260902004605 82 230 1.0 3.0 0.03 0.03 0.03 77 1012.4
20260902004105 83 20 2.0 3.0 0.02 0.02 0.02 75 1012.5
20260902003604 84 13 0.0 2.0 0.00 0.00 0.00 75 1012.6
20260902003104 85 241 0.0 1.0 0.00 0.00 0.00 74 1012.5
20260902002605 85 259 0.0 1.0 0.00 0.00 0.00 72 1012.1
20260902002105 85 89 0.0 0.0 0.00 0.00 0.00 71 1012.0
20260902001605 86 89 0.0 1.0 0.00 0.00 0.00 70 1012.0
20260902001105 86 89 0.0 1.0 0.00 0.00 0.00 70 1012.2
20260902000604 86 154 0.0 1.0 0.00 0.00 0.00 69 1012.1
20260902000105 86 196 0.0 2.0 0.00 0.00 0.00 69 1012.1
20260901235605 86 246 0.0 1.0 0.00 0.00 0.00 69 1012.2
20260901235104 86 250 0.0 1.0 0.00 0.00 0.00 68 1012.3
20260901234604 86 250 0.0 1.0 0.00 0.00 0.00 68 1011.9
20260901234104 86 251 0.0 1.0 0.00 0.00 0.00 67 1012.0
20260901233604 87 255 1.0 3.0 0.00 0.00 0.00 67 1011.8
20260901233105 87 147 0.0 1.0 0.00 0.00 0.00 67 1012.1
20260901232104 87 300 0.0 1.0 0.00 0.00 0.00 66 1012.2
20260901231605 87 302 0.0 1.0 0.00 0.00 0.00 66 1012.3
20260901231104 88 341 0.0 2.0 0.00 0.00 0.00 66 1012.2
20260901230604 88 242 0.0 5.0 0.00 0.00 0.00 66 1012.2
20260901230106 88 220 0.0 2.0 0.00 0.00 0.00 66 1012.3
20260901225604 88 225 1.0 3.0 0.00 0.00 0.00 66 1012.0
20260901225104 88 272 0.0 1.0 0.00 0.00 0.00 66 1012.1
20260901224604 88 302 0.0 2.0 0.00 0.00 0.00 66 1012.3
20260901224105 89 292 1.0 3.0 0.00 0.00 0.00 65 1012.3
20260901223105 89 214 1.0 3.0 0.00 0.00 0.00 64 1012.1
20260901222604 89 230 1.0 3.0 0.00 0.00 0.00 65 1012.0
20260901222105 89 223 1.0 3.0 0.00 0.00 0.00 64 1012.0
20260901221105 90 236 1.0 3.0 0.00 0.00 0.00 64 1011.8
20260901220605 90 262 1.0 3.0 0.00 0.00 0.00 63 1011.9
20260901220105 90 240 1.0 3.0 0.00 0.00 0.00 63 1012.1
20260901215605 90 254 0.0 3.0 0.00 0.00 0.00 63 1012.4
20260901215104 91 316 1.0 5.0 0.00 0.00 0.00 62 1012.4
20260901214606 91 269 2.0 3.0 0.00 0.00 0.00 62 1012.5
20260901214104 91 142 1.0 3.0 0.00 0.00 0.00 62 1012.4
20260901213605 91 187 2.0 7.0 0.00 0.00 0.00 61 1012.5
20260901213105 91 248 2.0 3.0 0.00 0.00 0.00 61 1012.4
20260901212605 91 211 2.0 5.0 0.00 0.00 0.00 61 1012.3
20260901212104 92 216 1.0 6.0 0.00 0.00 0.00 60 1012.4
20260901211604 91 173 1.0 3.0 0.00 0.00 0.00 61 1012.3
20260901211104 91 230 1.0 3.0 0.00 0.00 0.00 61 1012.3
20260901210605 91 243 1.0 6.0 0.00 0.00 0.00 61 1012.4
20260901210104 91 280 2.0 3.0 0.00 0.00 0.00 60 1012.4
20260901205605 91 54 2.0 3.0 0.00 0.00 0.00 60 1012.4
20260901204605 91 220 3.0 5.0 0.00 0.00 0.00 60 1012.5
20260901204105 91 251 1.0 3.0 0.00 0.00 0.00 60 1012.5
20260901203605 92 232 3.0 10.0 0.00 0.00 0.00 59 1012.6
20260901203104 92 199 2.0 6.0 0.00 0.00 0.00 59 1012.6
20260901202104 92 33 2.0 6.0 0.00 0.00 0.00 59 1012.7
20260901201605 92 26 1.0 5.0 0.00 0.00 0.00 59 1012.6
20260901200604 92 199 2.0 7.0 0.00 0.00 0.00 59 1012.5
20260901200104 92 213 2.0 6.0 0.00 0.00 0.00 59 1012.5
20260901195604 92 253 2.0 7.0 0.00 0.00 0.00 60 1012.6
20260901195105 93 172 1.0 3.0 0.00 0.00 0.00 59 1012.6
20260901194604 93 186 1.0 5.0 0.00 0.00 0.00 60 1012.7
20260901194105 92 178 1.0 3.0 0.00 0.00 0.00 61 1012.6
20260901193605 92 158 1.0 3.0 0.00 0.00 0.00 62 1012.8
20260901193104 92 216 1.0 7.0 0.00 0.00 0.00 62 1012.9
20260901192604 91 190 2.0 6.0 0.00 0.00 0.00 60 1013.1
20260901191605 91 230 2.0 5.0 0.00 0.00 0.00 60 1013.0
20260901191104 91 225 2.0 6.0 0.00 0.00 0.00 61 1013.1
20260901190604 91 277 2.0 5.0 0.00 0.00 0.00 61 1013.1
20260901190105 91 111 1.0 3.0 0.00 0.00 0.00 61 1013.1
20260901185104 90 231 2.0 3.0 0.00 0.00 0.00 63 1013.2
20260901184604 90 175 2.0 6.0 0.00 0.00 0.00 64 1013.2
20260901184105 90 267 2.0 6.0 0.00 0.00 0.00 64 1013.4
20260901183604 90 76 1.0 3.0 0.00 0.00 0.00 64 1013.4
20260901183104 90 190 2.0 3.0 0.00 0.00 0.00 66 1013.4
20260901182604 90 238 1.0 3.0 0.00 0.00 0.00 66 1013.5
20260901181604 89 215 2.0 6.0 0.00 0.00 0.00 65 1013.5
20260901181105 89 323 1.0 3.0 0.00 0.00 0.00 66 1013.5
20260901180605 88 280 1.0 6.0 0.00 0.00 0.00 67 1013.7
20260901180105 88 5 1.0 3.0 0.00 0.00 0.00 67 1013.7
20260901175604 88 151 3.0 6.0 0.00 0.00 0.00 66 1013.8
20260901175104 88 135 1.0 3.0 0.00 0.00 0.00 68 1013.8
20260901174604 87 154 1.0 3.0 0.00 0.00 0.00 69 1013.8
20260901174105 87 328 0.0 3.0 0.00 0.00 0.00 72 1013.8
20260901173604 86 232 1.0 3.0 0.00 0.00 0.00 74 1013.9
20260901173105 85 242 0.0 1.0 0.00 0.00 0.00 74 1014.0
20260901172604 84 233 1.0 2.0 0.00 0.00 0.00 75 1014.1
20260901172104 84 26 1.0 3.0 0.00 0.00 0.00 75 1014.1
20260901171605 84 44 0.0 3.0 0.00 0.00 0.00 75 1014.2
20260901171104 84 222 1.0 3.0 0.00 0.00 0.00 74 1014.3
20260901170605 84 214 0.0 1.0 0.00 0.00 0.00 75 1014.3
20260901170104 84 186 0.0 1.0 0.00 0.00 0.00 75 1014.3
20260901165604 84 184 0.0 2.0 0.00 0.00 0.00 75 1014.5
20260901164605 84 195 0.0 1.0 0.00 0.00 0.00 75 1014.6
20260901164104 84 229 1.0 2.0 0.00 0.00 0.00 74 1014.7
20260901163604 84 8 0.0 1.0 0.00 0.00 0.00 75 1014.7
20260901163104 84 161 0.0 0.0 0.00 0.00 0.00 76 1014.5
20260901162604 83 161 0.0 1.0 0.00 0.00 0.00 75 1014.6
20260901162104 83 205 1.0 3.0 0.00 0.00 0.00 75 1014.5
20260901161604 83 252 0.0 3.0 0.00 0.00 0.00 75 1014.5
20260901161104 83 215 0.0 3.0 0.00 0.00 0.00 76 1014.7
20260901160604 83 271 0.0 2.0 0.00 0.00 0.00 75 1014.7
20260901155104 84 239 0.0 3.0 0.00 0.00 0.00 74 1014.8
20260901154605 84 294 0.0 1.0 0.00 0.00 0.00 74 1014.9
20260901154104 84 15 0.0 2.0 0.00 0.00 0.00 74 1015.1
20260901153605 84 344 1.0 3.0 0.00 0.00 0.00 74 1015.2
20260901153104 84 220 0.0 2.0 0.00 0.00 0.00 74 1015.2
20260901152605 84 235 1.0 3.0 0.00 0.00 0.00 74 1015.2
20260901152105 84 296 0.0 2.0 0.00 0.00 0.00 75 1015.2
20260901151605 84 352 1.0 3.0 0.00 0.00 0.00 75 1015.2
20260901151104 83 338 1.0 3.0 0.00 0.00 0.00 76 1015.2
20260901150604 83 256 1.0 3.0 0.00 0.00 0.00 76 1015.2
20260901150104 83 319 1.0 3.0 0.00 0.00 0.00 76 1015.2
20260901145604 83 6 1.0 5.0 0.00 0.00 0.00 76 1015.3
20260901145104 83 333 1.0 6.0 0.00 0.00 0.00 77 1015.2
20260901144604 83 228 2.0 5.0 0.00 0.00 0.00 77 1015.2
20260901144104 82 21 0.0 3.0 0.00 0.00 0.00 78 1015.2